Hourly Data Report for November 14, 2020

OTTAWA INTL A
ONTARIO
Current Station Operator: NAVCAN

45°19'00.000" N
75°40'00.000" W
114.90 m
6106001
71628
YOW

Download Data

Hourly Data (November 2020)
Hourly Data Report for November 14, 2020
TIME Temp Definition
°C
Dew Point Definition
°C
Rel Hum Definition
%
Wind Dir Definition
10's deg

Wind Spd Definition
km/h
Visibility Definition
km
Stn Press Definition
kPa
Hmdx Definition


Wind Chill Definition


Weather Definition


00:00 2.8 0.8 86 25 14 24.1 99.96     LegendNANA
01:00 2.4 -0.3 82 26 14 24.1 99.98     Mainly Clear
02:00 3.2 -0.1 79 27 24 24.1 100.06     LegendNANA
03:00 2.8 -1.9 72 27 28 24.1 100.13     LegendNANA
04:00 2.7 -3.1 65 28 28 24.1 100.22     Mostly Cloudy
05:00 2.2 -2.4 71 27 21 24.1 100.30     LegendNANA
06:00 2.0 -2.5 72 27 23 24.1 100.40     LegendNANA
07:00 2.1 -2.7 71 28 20 24.1 100.46     Mostly Cloudy
08:00 2.3 -3.0 68 30 19 24.1 100.54     LegendNANA
09:00 2.6 -4.5 59 30 23 24.1 100.59     LegendNANA
10:00 2.6 -6.5 51 31 25 24.1 100.65     Mostly Cloudy
11:00 3.4 -6.7 48 29 19 24.1 100.68     LegendNANA
12:00 4.1 -7.2 44 26 21 24.1 100.68     LegendNANA
13:00 4.3 -7.6 42 29 23 24.1 100.73     Clear
14:00 4.3 -8.1 40 30 21 24.1 100.75     LegendNANA
15:00 4.3 -7.9 41 28 18 24.1 100.82     LegendNANA
16:00 3.4 -7.4 45 27 14 24.1 100.87     Clear
17:00 1.3 -6.7 55 26 7 24.1 100.90     LegendNANA
18:00 1.4 -7.0 54 25 4 24.1 100.94     LegendNANA
19:00 -1.6 -7.2 66 13 3 24.1 100.99   -3 Clear
20:00 -2.4 -7.3 69 36 3 24.1 100.97   -4 LegendNANA
21:00 -3.5 -7.9 71 13 7 24.1 100.96   -6 LegendNANA
22:00 -4.3 -8.0 75 9 9 24.1 100.86   -8 Clear
23:00 -3.8 -7.3 77 10 4 24.1 100.84   -5 LegendNANA

Notes on Data Quality.

Legend

  • E = Estimated
  • M = Missing
  • NA = Not Available*
  • [empty] = Indicates an unobserved value
Date modified: